LRI044 SKBO-SVMI

Flight info

Callsign LRI044
Flight time 1h 26m
Altitude 37000
Route DANSA4R AKROB DCT KIKAS UP533 PBL ALDAK1
Aircraft B737/M-SDE2E3FGHIRWXY/LB1

Departure

Time 2025-10-09 13:16
Airport El Dorado International Airport (SKBO)

Arrival

Time 2025-10-09 14:43
Airport Maiquetía Simón Bolívar International Airport (SVMI)
Time Latitude Longitude Altitude Speed Heading
2025-10-09 12:46 4.69781 -74.14703 8365 ft 0 kts 216°
2025-10-09 12:58 4.69791 -74.14695 8365 ft 1 kts 216°
2025-10-09 12:59 4.69807 -74.14683 8365 ft 1 kts 232°
2025-10-09 12:59 4.69811 -74.14664 8365 ft 1 kts 298°
2025-10-09 13:00 4.69807 -74.14655 8365 ft 0 kts 309°
2025-10-09 13:08 4.69826 -74.14680 8365 ft 4 kts 308°
2025-10-09 13:08 4.69899 -74.14780 8365 ft 13 kts 306°
2025-10-09 13:09 4.69954 -74.14971 8365 ft 18 kts 307°
2025-10-09 13:09 4.70035 -74.15078 8365 ft 21 kts 307°
2025-10-09 13:10 4.70234 -74.15339 8365 ft 26 kts 307°
2025-10-09 13:10 4.70479 -74.15651 8365 ft 30 kts 309°
2025-10-09 13:11 4.70749 -74.15994 8365 ft 30 kts 306°
2025-10-09 13:11 4.70987 -74.16313 8365 ft 27 kts 307°
2025-10-09 13:12 4.71261 -74.16674 8365 ft 17 kts 308°
2025-10-09 13:12 4.71259 -74.16779 8365 ft 3 kts 223°
2025-10-09 13:13 4.71234 -74.16791 8365 ft 5 kts 201°
2025-10-09 13:13 4.71145 -74.16831 8364 ft 9 kts 214°
2025-10-09 13:14 4.71007 -74.16858 8362 ft 13 kts 132°
2025-10-09 13:14 4.70865 -74.16672 8362 ft 66 kts 127°
2025-10-09 13:15 4.69778 -74.15246 8401 ft 180 kts 128°
2025-10-09 13:15 4.67948 -74.13493 9756 ft 187 kts 169°
2025-10-09 13:16 4.65084 -74.15666 11873 ft 198 kts 236°
2025-10-09 13:16 4.63317 -74.18232 12420 ft 247 kts 236°
2025-10-09 13:17 4.61465 -74.21245 13691 ft 259 kts 254°
2025-10-09 13:17 4.61553 -74.24992 14389 ft 291 kts 300°
2025-10-09 13:18 4.64836 -74.27201 15677 ft 298 kts 352°
2025-10-09 13:18 4.68748 -74.26060 16899 ft 305 kts 40°
2025-10-09 13:19 4.70251 -74.24553 17515 ft 307 kts 49°
2025-10-09 13:20 4.75730 -74.17731 19772 ft 320 kts 51°
2025-10-09 13:20 4.78565 -74.14247 20855 ft 325 kts 50°
2025-10-09 13:21 4.81479 -74.10716 21825 ft 331 kts 50°
2025-10-09 13:21 4.82940 -74.08953 22331 ft 334 kts 50°
2025-10-09 13:21 4.86085 -74.05169 22642 ft 373 kts 50°
2025-10-09 13:22 4.89571 -74.00979 22892 ft 408 kts 50°
2025-10-09 13:22 4.93324 -73.96468 23338 ft 428 kts 50°
2025-10-09 13:23 4.97153 -73.91864 24343 ft 431 kts 50°
2025-10-09 13:24 5.08894 -73.77745 26647 ft 448 kts 50°
2025-10-09 13:26 5.25203 -73.58117 28941 ft 466 kts 50°
2025-10-09 13:28 5.42596 -73.38437 30806 ft 480 kts 41°
2025-10-09 13:30 5.62498 -73.20928 33230 ft 473 kts 41°
2025-10-09 13:32 5.82086 -73.03486 35827 ft 467 kts 41°
2025-10-09 13:34 6.01545 -72.86147 36992 ft 467 kts 41°
2025-10-09 13:37 6.23435 -72.66621 37000 ft 469 kts 41°
2025-10-09 13:38 6.40353 -72.51515 37004 ft 462 kts 41°
2025-10-09 13:40 6.59857 -72.34082 37000 ft 474 kts 41°
2025-10-09 13:42 6.77121 -72.18635 37000 ft 470 kts 41°
2025-10-09 13:44 6.98404 -71.99568 37005 ft 458 kts 41°
2025-10-09 13:46 7.15768 -71.81350 37000 ft 447 kts 47°
2025-10-09 13:48 7.32687 -71.62968 37002 ft 448 kts 47°
2025-10-09 13:50 7.49703 -71.44468 37000 ft 452 kts 47°
2025-10-09 13:52 7.66762 -71.25899 37000 ft 451 kts 47°
2025-10-09 13:54 7.83797 -71.07332 37001 ft 450 kts 47°
2025-10-09 13:56 8.00773 -70.88805 37003 ft 450 kts 47°
2025-10-09 13:58 8.17768 -70.70234 37001 ft 450 kts 47°
2025-10-09 14:00 8.34021 -70.52448 37001 ft 450 kts 47°
2025-10-09 14:02 8.48888 -70.36159 37000 ft 450 kts 47°
2025-10-09 14:04 8.67882 -70.15106 37003 ft 450 kts 48°
2025-10-09 14:06 8.82381 -69.98525 36999 ft 450 kts 48°
2025-10-09 14:08 9.01045 -69.77206 37001 ft 450 kts 48°
2025-10-09 14:10 9.15573 -69.60586 37001 ft 450 kts 48°
2025-10-09 14:12 9.34204 -69.39239 37001 ft 449 kts 48°
2025-10-09 14:14 9.50741 -69.20259 37002 ft 449 kts 48°
2025-10-09 14:16 9.67266 -69.01262 37001 ft 450 kts 48°
2025-10-09 14:18 9.83819 -68.82203 37004 ft 451 kts 49°
2025-10-09 14:20 10.00564 -68.62885 34086 ft 461 kts 49°
2025-10-09 14:22 10.15141 -68.46123 29618 ft 438 kts 48°
2025-10-09 14:24 10.32475 -68.26170 24383 ft 400 kts 48°
2025-10-09 14:25 10.36124 -68.21964 23251 ft 393 kts 48°
2025-10-09 14:25 10.39703 -68.17837 22115 ft 386 kts 48°
2025-10-09 14:26 10.43217 -68.13783 21016 ft 378 kts 48°
2025-10-09 14:26 10.44929 -68.11808 20467 ft 375 kts 48°
2025-10-09 14:27 10.49098 -68.05337 18931 ft 362 kts 75°
2025-10-09 14:27 10.50259 -68.00400 17877 ft 356 kts 77°
2025-10-09 14:28 10.51349 -67.95531 16826 ft 350 kts 77°
2025-10-09 14:28 10.52459 -67.90742 15775 ft 345 kts 76°
2025-10-09 14:29 10.53568 -67.86035 14729 ft 340 kts 76°
2025-10-09 14:29 10.54658 -67.81429 13696 ft 335 kts 76°
2025-10-09 14:30 10.55201 -67.79138 13182 ft 332 kts 76°
2025-10-09 14:30 10.56272 -67.74610 12155 ft 327 kts 76°
2025-10-09 14:31 10.57851 -67.67932 10625 ft 320 kts 76°
2025-10-09 14:31 10.58421 -67.63582 10170 ft 298 kts 88°
2025-10-09 14:32 10.58497 -67.59522 9713 ft 282 kts 89°
2025-10-09 14:32 10.58582 -67.55575 9026 ft 277 kts 88°
2025-10-09 14:33 10.58694 -67.51693 8299 ft 273 kts 88°
2025-10-09 14:33 10.58755 -67.49770 7942 ft 272 kts 88°
2025-10-09 14:34 10.58881 -67.45949 7223 ft 269 kts 88°
2025-10-09 14:34 10.59071 -67.40316 6158 ft 265 kts 88°
2025-10-09 14:35 10.59198 -67.36587 5453 ft 262 kts 88°
2025-10-09 14:35 10.59323 -67.32896 4757 ft 260 kts 88°
2025-10-09 14:36 10.59446 -67.29242 4093 ft 257 kts 88°
2025-10-09 14:36 10.59568 -67.25618 4025 ft 256 kts 88°
2025-10-09 14:37 10.59690 -67.22004 4017 ft 256 kts 88°
2025-10-09 14:37 10.59798 -67.18454 3708 ft 246 kts 88°
2025-10-09 14:38 10.59841 -67.16767 3646 ft 230 kts 88°
2025-10-09 14:38 10.59922 -67.13618 2851 ft 228 kts 88°
2025-10-09 14:39 10.60040 -67.09103 1773 ft 193 kts 88°
2025-10-09 14:39 10.60112 -67.06545 1272 ft 168 kts 88°
2025-10-09 14:40 10.60196 -67.04390 915 ft 140 kts 88°
2025-10-09 14:40 10.60178 -67.02448 453 ft 135 kts 88°
2025-10-09 14:41 10.60231 -67.00659 226 ft 113 kts 88°
2025-10-09 14:41 10.60249 -67.00069 217 ft 54 kts 88°
2025-10-09 14:42 10.60099 -66.99915 217 ft 16 kts 178°
2025-10-09 14:42 10.59888 -66.99929 219 ft 15 kts 184°